This demonstration page uses our WeatherBlox Daily Observations layout. Learn more.

Left ArrowRight Arrow

39.08367, -84.50855

Hourly Observations for June 10, 2020

Temp ( °F °C ) Dew Point ( °F °C ) Humidity (%) Winds ( mph kmh ) Pressure ( in mb ) Visibility ( mi km ) Precip ( " mm )
12:53 am 00:53 Clear 77 25 70 21.1 79 79 SSW 9 15 29.78 1008 10 16.0934 0 0
1:53 am 01:53 Partly Cloudy 77 25 70 21.1 79 79 S 8 13 29.77 1008 10 16.0934 0 0
2:53 am 02:53 Mostly Clear 76 24.4 71 21.7 85 85 S 12 19 29.75 1008 10 16.0934 0 0
3:53 am 03:53 Mostly Clear 76 24.4 71 21.7 85 85 S 12 19 29.75 1007 10 16.0934 0 0
4:12 am 04:12 Mostly Cloudy 76 24.4 71 21.7 85 85 S 10 17 29.74 1007 10 16.0934 0 0
4:53 am 04:53 Cloudy 77 25 71 21.7 82 82 S 9 15 29.75 1007 10 16.0934 0 0
5:53 am 05:53 Cloudy 77 25 71 21.7 82 82 S 13 20 29.75 1008 10 16.0934 0 0
6:53 am 06:53 Cloudy 77 25 71 21.7 82 82 S 10 17 29.76 1008 10 16.0934 0 0
7:53 am 07:53 Mostly Cloudy 78 25.6 72 22.2 82 82 S 13 20 29.76 1008 10 16.0934 0 0
8:53 am 08:53 Cloudy 78 25.6 72 22.2 82 82 S 16 26 29.75 1008 10 16.0934 0 0
9:53 am 09:53 Cloudy 79 26.1 73 22.8 82 82 S 13 20 29.75 1007 10 16.0934 0 0
10:53 am 10:53 Cloudy 80 26.7 73 22.8 79 79 S 10 17 29.73 1007 10 16.0934 0 0
11:53 am 11:53 Cloudy 82 27.8 74 23.3 77 77 S 16 26 29.72 1006 10 16.0934 0 0
12:53 pm 12:53 Cloudy 85 29.4 75 23.9 72 72 S 16 26 29.7 1006 10 16.0934 0 0
1:53 pm 13:53 Partly Cloudy 87 30.6 75 23.9 67 67 S 16 26 29.67 1005 10 16.0934 0 0
2:53 pm 14:53 Partly Cloudy 89 31.7 72 22.2 57 57 S 26 43 29.65 1004 10 16.0934 0 0
3:53 pm 15:53 Partly Cloudy with Light Rain 89 31.7 74 23.3 61 61 SSW 21 33 29.63 1003 4 6.43736 0.04 1.016
4:16 pm 16:16 Mostly Cloudy with Light Rain 82 27.8 73 22.8 74 74 SW 22 35 29.62 1003 5 8.0467 0.05 1.27
4:53 pm 16:53 Mostly Sunny 87 30.6 73 22.8 63 63 SW 15 24 29.61 1003 10 16.0934 0.05 1.27
5:53 pm 17:53 Mostly Sunny 87 30.6 69 20.6 55 55 SSW 20 31 29.61 1003 10 16.0934 0.01 0.254
6:53 pm 18:53 Mostly Sunny 87 30.6 62 16.7 43 43 SW 22 35 29.64 1004 10 16.0934 0 0
7:53 pm 19:53 Mostly Sunny 83 28.3 59 15 44 44 WSW 17 28 29.69 1005 10 16.0934 0 0
8:53 pm 20:53 Sunny 77 25 57 13.9 50 50 W 18 30 29.75 1008 10 16.0934 0 0
9:53 pm 21:53 Cloudy 76 24.4 56 13.3 50 50 WSW 17 28 29.81 1009 10 16.0934 0 0
10:53 pm 22:53 Partly Cloudy 74 23.3 57 13.9 56 56 WSW 13 20 29.85 1011 10 16.0934 0 0
11:53 pm 23:53 Mostly Cloudy 73 22.8 57 13.9 57 57 WSW 12 19 29.86 1011 10 16.0934 0 0

Powered by AerisWeather